Wind_Speed
19 18 17 16 16 15 15 14 14 12 11 11 11 10 9 8 7 7 7 7 6 6 6 6 7 7 7 8 8 8 8 9 9 9 10 10 10 10 10 10 10 10 10 11
21 20 19 19 17 17 16 15 14 13 12 11 11 10 9 8 8 8 7 7 7 7 7 7 8 8 8 8 8 8 9 9 9 9 10 10 10 11 11 11 11 11 12 12
24 23 22 21 18 18 17 16 15 13 12 12 12 11 11 10 9 9 8 7 7 7 7 8 9 9 9 9 9 9 10 10 10 10 10 10 11 11 11 11 11 12 13 12
26 25 25 21 19 19 18 17 16 15 14 13 13 12 12 11 10 9 8 8 8 8 8 8 9 9 9 9 9 10 10 11 11 11 11 11 12 12 12 12 12 13 13 13
28 27 25 22 20 20 20 19 17 17 15 14 13 13 12 11 11 10 10 10 10 9 9 8 9 9 9 9 9 9 10 11 12 12 13 13 13 13 13 13 13 13 13 13
29 28 26 22 20 20 21 21 19 18 17 16 15 14 13 13 12 11 11 11 11 10 10 10 10 10 10 10 10 10 11 11 12 12 12 13 13 14 14 14 14 14 14 14
31 28 26 23 22 22 23 20 20 19 18 17 16 16 15 14 13 12 13 13 12 12 11 11 11 11 11 11 11 11 12 12 13 13 13 13 14 14 14 15 15 15 15 15
30 30 26 23 24 23 21 21 21 20 19 18 18 17 17 16 14 14 14 14 14 13 13 13 13 12 12 13 13 13 13 13 14 14 14 14 14 14 14 14 14 15 15 15
30 28 26 24 24 23 22 22 21 21 21 20 20 19 18 17 17 16 15 15 15 15 14 14 14 14 13 14 15 15 15 15 15 15 16 16 16 16 16 15 15 16 16 16
29 27 26 26 26 24 23 23 22 22 22 22 21 21 20 19 18 18 18 17 17 16 16 15 15 15 15 16 16 16 16 16 16 17 17 18 18 18 18 17 17 18 18 18
29 27 27 27 27 25 24 24 23 23 23 23 22 22 22 21 20 20 20 19 18 17 17 17 17 17 17 17 17 17 17 18 18 18 18 18 19 19 19 19 20 19 19 20
29 27 26 27 28 27 26 25 24 24 24 24 24 24 23 22 22 22 21 21 20 19 19 19 19 18 19 19 18 18 18 19 19 19 19 19 20 20 21 21 21 21 21 21
29 29 28 28 28 27 27 26 26 26 26 25 26 25 25 24 24 24 23 22 22 21 21 20 20 20 20 20 20 20 20 20 20 20 20 20 21 21 22 22 22 22 23 23
30 30 30 29 29 29 29 28 28 27 27 27 27 27 26 26 25 25 24 23 22 22 21 21 21 22 22 22 22 22 22 22 22 21 21 21 22 22 22 23 23 23 23 23
31 31 31 30 31 31 30 29 29 28 28 29 29 28 27 27 26 25 25 24 24 23 22 23 22 22 22 22 23 23 23 23 23 23 23 23 23 24 24 25 25 25 24 25
32 32 32 31 31 31 30 30 29 28 28 29 29 29 27 27 27 27 26 26 25 24 24 24 23 23 23 23 23 23 23 24 24 24 24 24 24 25 26 26 26 27 26 27
33 32 32 32 31 31 31 31 30 29 29 30 30 29 29 28 28 27 27 27 27 27 26 25 25 25 24 24 24 24 25 25 25 26 26 26 26 26 27 27 28 28 29 29
32 32 31 31 30 30 31 31 31 31 30 30 30 31 30 29 29 29 29 28 28 28 27 27 26 25 25 25 25 26 26 26 26 27 27 27 27 28 29 29 29 30 30 30
31 31 30 30 30 30 31 31 31 31 31 31 31 31 31 31 31 30 30 29 29 28 28 28 27 27 26 26 26 27 27 27 27 27 28 28 29 29 30 30 30 31 31 31
28 29 30 31 31 31 31 30 31 32 32 32 31 31 31 31 31 31 32 31 30 29 29 29 29 29 28 28 28 28 28 28 28 28 28 29 30 30 30 31 31 32 32 32
27 28 30 30 30 31 31 32 32 32 32 32 32 32 32 32 32 32 32 32 31 30 30 30 30 30 30 29 29 29 29 29 29 29 29 29 30 30 31 31 31 32 32 33
28 29 30 30 30 31 31 32 32 33 33 33 32 33 34 33 33 33 32 32 32 32 31 31 31 31 31 31 30 30 30 29 29 29 29 30 30 31 31 31 32 32 33 33
28 29 29 30 30 31 31 32 33 33 34 34 33 33 33 33 33 33 33 33 32 32 32 32 32 32 31 31 31 30 30 30 29 30 30 30 30 30 31 31 32 33 33 34
28 29 30 31 32 33 33 33 33 33 33 34 34 34 34 33 33 32 33 33 33 32 32 32 32 32 32 31 31 30 30 30 30 30 30 29 30 30 31 31 32 33 33 33
28 29 29 31 32 33 33 33 33 34 34 33 33 33 34 33 33 32 31 32 32 33 32 32 32 32 31 31 31 31 30 30 30 30 30 30 30 30 30 31 32 33 33 33
29 29 30 30 31 32 33 33 33 33 32 32 32 32 32 33 32 32 31 31 31 32 32 32 32 32 32 31 31 30 30 30 30 30 30 30 30 30 31 32 32 33 33 33
29 30 30 31 31 31 32 32 32 33 32 32 32 32 32 32 32 31 31 31 30 31 31 31 31 31 31 31 31 30 31 31 30 30 30 30 31 31 32 32 32 32 32 33
Wind_Direction
250 252 256 258 258 262 266 270 273 275 275 277 276 281 285 286 283 284 279 274 272 272 264 255 250 252 247 242 245 251 251 249 247 248 246 243 246 250 254 259 263 265 269 272
249 251 253 254 255 259 263 266 269 270 271 271 270 274 279 281 278 282 281 274 272 269 263 253 249 251 249 247 251 254 254 252 249 248 248 244 245 253 257 261 264 266 269 272
249 251 252 253 254 256 258 260 263 266 266 263 266 269 272 275 276 275 276 278 274 271 268 253 250 253 253 255 253 253 254 253 253 248 245 246 249 254 257 263 267 268 268 272
248 249 249 253 251 253 254 256 262 263 262 262 264 267 266 266 270 272 272 274 273 272 271 261 256 255 254 255 257 258 257 252 249 250 249 251 253 255 259 265 269 271 271 273
247 249 250 248 249 252 256 256 257 258 259 258 259 263 264 264 265 266 270 270 269 269 270 267 260 257 257 257 259 258 256 251 250 251 252 254 256 258 261 265 269 274 274 275
246 249 248 247 247 249 251 252 254 256 257 257 255 257 260 263 263 261 262 263 265 266 269 269 266 261 258 256 257 259 257 253 251 253 255 257 259 259 261 264 268 272 274 275
245 248 248 245 244 246 249 254 253 254 256 256 254 256 257 261 264 262 260 261 262 265 269 267 267 267 263 257 258 260 257 255 254 253 255 258 259 261 263 266 269 272 273 273
245 246 245 243 243 245 249 250 249 250 251 252 253 256 258 260 263 264 262 259 258 261 265 264 263 264 265 263 262 262 262 260 258 257 257 258 260 263 267 268 270 273 274 274
245 244 242 241 243 244 244 246 246 246 246 249 250 253 256 258 259 261 261 258 258 259 262 262 263 264 266 267 267 266 265 264 262 261 259 261 264 266 267 270 272 273 275 276
243 243 243 244 244 243 243 245 245 246 246 246 248 251 252 255 256 258 259 258 258 261 262 263 264 266 268 269 270 269 267 264 262 262 262 265 266 268 269 271 272 273 274 276
242 242 241 241 243 242 241 243 246 248 248 248 248 251 251 253 255 256 256 257 257 260 262 261 264 266 267 267 267 268 268 267 265 265 265 266 267 267 269 270 271 271 273 276
243 242 242 242 242 241 242 244 245 248 250 250 250 251 252 253 254 255 255 254 255 258 261 262 262 264 265 265 265 266 267 267 266 267 267 267 267 267 269 271 271 271 273 276
242 242 244 243 242 242 242 244 246 247 246 248 250 252 252 253 255 255 255 255 256 257 259 262 263 264 265 265 266 266 267 267 267 267 268 268 268 268 269 271 271 272 274 275
240 241 242 243 243 243 243 244 246 248 247 248 250 251 252 253 254 254 254 255 256 257 259 262 264 264 264 265 266 266 267 267 267 268 268 269 269 269 269 270 273 273 274 275
238 238 240 241 242 244 244 245 247 249 250 252 251 251 252 253 253 252 253 253 255 257 260 262 263 264 264 265 266 266 268 268 268 269 270 270 270 270 270 272 274 274 274 275
238 238 240 241 241 242 244 246 248 250 251 253 252 251 251 251 252 251 252 253 254 257 259 262 264 265 264 264 266 266 267 269 269 271 271 271 272 271 272 275 276 276 276 276
240 240 240 240 241 242 243 245 247 250 252 253 252 250 249 250 252 252 253 253 254 256 258 260 263 265 263 264 266 266 267 268 269 270 271 271 272 273 274 276 277 277 277 276
241 241 240 240 242 243 245 246 246 248 250 252 252 249 248 250 252 254 254 254 255 256 258 259 261 263 264 264 265 266 267 269 270 270 271 272 273 274 275 276 276 277 278 278
241 240 239 239 242 244 246 246 246 247 249 251 252 251 251 252 253 253 255 255 255 256 257 259 260 262 263 263 264 266 267 269 271 272 271 272 274 276 276 276 278 279 279 279
242 242 241 241 242 245 247 247 247 249 251 252 253 252 253 253 254 254 255 255 255 256 257 259 261 262 262 262 264 266 268 270 272 272 272 272 274 276 276 277 279 280 280 281
242 243 243 242 243 245 247 248 248 250 252 253 253 253 253 254 255 256 256 256 256 256 258 259 261 262 263 263 264 266 268 270 271 272 273 274 275 276 276 278 279 280 281 282
244 245 244 243 244 246 249 249 249 250 251 252 253 254 256 256 257 257 257 257 257 257 259 260 261 262 263 264 264 265 267 269 270 272 273 274 276 277 278 279 280 281 282 283
249 248 248 248 248 248 249 250 251 251 251 252 254 256 257 258 259 259 258 259 258 258 259 260 261 262 264 264 264 264 265 268 270 272 273 275 276 277 278 280 282 283 283 284
249 248 248 249 250 251 251 251 252 253 253 253 254 256 257 257 258 259 259 258 258 259 259 260 260 262 263 264 264 264 264 267 269 272 274 275 277 278 280 282 283 284 283 284
251 250 249 250 251 253 252 251 252 253 253 253 254 255 256 256 258 259 259 258 257 258 259 259 260 260 261 263 264 265 265 266 269 272 274 276 278 279 281 283 284 284 283 284
254 254 253 253 253 253 251 250 251 251 252 253 254 254 255 255 257 258 259 258 258 257 257 258 260 260 261 263 264 265 266 267 269 271 273 275 277 279 281 284 285 285 285 285
255 255 255 255 254 252 250 250 250 250 251 252 253 253 254 255 255 256 257 258 258 258 258 258 260 262 263 263 264 266 267 268 269 271 273 275 277 280 281 283 285 285 285 286
Height
5829 5830 5831 5831 5832 5833 5833 5834 5834 5835 5835 5835 5834 5834 5834 5834 5834 5833 5833 5833 5833 5833 5832 5833 5833 5833 5834 5834 5835 5835 5835 5836 5836 5836 5837 5837 5838 5838 5839 5839 5838 5838 5838 5838
5823 5825 5826 5826 5827 5828 5829 5830 5830 5831 5831 5831 5831 5831 5831 5831 5831 5831 5831 5831 5831 5830 5830 5831 5831 5831 5831 5832 5832 5833 5833 5833 5833 5834 5834 5835 5835 5836 5836 5836 5836 5836 5835 5835
5817 5819 5819 5821 5823 5824 5825 5825 5826 5826 5828 5827 5828 5828 5828 5828 5828 5828 5829 5829 5828 5828 5828 5828 5828 5829 5829 5829 5830 5830 5830 5831 5831 5831 5832 5832 5832 5833 5833 5833 5833 5832 5832 5832
5810 5813 5813 5819 5819 5819 5820 5821 5821 5822 5823 5824 5824 5825 5825 5825 5825 5825 5826 5826 5826 5826 5826 5826 5826 5826 5826 5827 5827 5827 5827 5827 5828 5828 5829 5829 5829 5830 5830 5830 5829 5829 5828 5828
5803 5804 5807 5811 5813 5814 5815 5816 5817 5817 5818 5819 5820 5821 5821 5822 5822 5822 5823 5823 5823 5823 5823 5823 5823 5823 5824 5824 5824 5824 5824 5824 5825 5825 5826 5826 5826 5826 5826 5826 5826 5825 5825 5824
5795 5797 5800 5807 5808 5808 5809 5810 5812 5813 5814 5815 5816 5817 5818 5818 5818 5819 5819 5819 5819 5819 5820 5820 5820 5820 5821 5821 5821 5821 5821 5821 5822 5822 5822 5822 5822 5822 5822 5822 5822 5822 5821 5821
5788 5789 5793 5799 5801 5802 5804 5806 5807 5807 5809 5810 5811 5813 5814 5814 5814 5815 5815 5815 5816 5816 5816 5816 5816 5817 5817 5817 5818 5818 5818 5818 5818 5818 5818 5819 5819 5819 5818 5818 5818 5818 5817 5817
5780 5783 5789 5792 5793 5795 5797 5799 5800 5802 5803 5805 5806 5807 5808 5809 5809 5810 5811 5811 5812 5812 5812 5812 5813 5813 5813 5813 5813 5813 5814 5814 5814 5814 5814 5814 5815 5814 5814 5814 5814 5814 5813 5812
5774 5778 5781 5783 5785 5787 5789 5792 5794 5795 5797 5799 5800 5801 5803 5804 5804 5805 5806 5806 5807 5807 5808 5808 5808 5809 5809 5808 5808 5808 5809 5809 5809 5809 5810 5810 5810 5810 5810 5809 5809 5809 5808 5808
5765 5769 5773 5775 5777 5780 5782 5785 5787 5788 5790 5792 5794 5796 5797 5798 5799 5800 5800 5801 5802 5802 5803 5803 5803 5803 5804 5803 5803 5803 5804 5804 5804 5804 5804 5804 5805 5805 5804 5804 5804 5804 5803 5802
5757 5761 5764 5767 5769 5772 5775 5777 5779 5781 5783 5785 5787 5789 5790 5791 5792 5793 5794 5795 5796 5797 5797 5798 5798 5798 5798 5798 5798 5798 5798 5798 5799 5799 5799 5799 5799 5799 5799 5799 5798 5798 5798 5797
5750 5754 5757 5760 5762 5765 5767 5770 5772 5774 5776 5778 5780 5781 5783 5784 5785 5786 5787 5788 5789 5790 5791 5791 5791 5792 5792 5792 5792 5792 5793 5793 5793 5793 5793 5793 5793 5793 5793 5793 5792 5792 5791 5791
5742 5745 5748 5751 5753 5756 5759 5761 5764 5766 5768 5770 5772 5773 5775 5776 5778 5779 5780 5781 5782 5783 5784 5785 5785 5785 5785 5786 5786 5786 5786 5786 5787 5787 5787 5787 5787 5786 5786 5786 5786 5785 5784 5784
5733 5736 5739 5742 5745 5748 5750 5753 5755 5758 5759 5761 5763 5765 5767 5768 5769 5770 5772 5773 5774 5775 5776 5777 5778 5778 5779 5779 5779 5779 5780 5780 5780 5780 5780 5780 5780 5780 5779 5779 5779 5778 5777 5776
5723 5727 5730 5733 5736 5739 5741 5744 5746 5749 5751 5753 5754 5756 5758 5759 5761 5762 5764 5765 5766 5768 5769 5770 5770 5771 5771 5771 5772 5772 5773 5773 5773 5773 5773 5773 5772 5772 5772 5771 5771 5770 5769 5768
5714 5717 5720 5724 5727 5730 5732 5735 5737 5740 5742 5744 5745 5747 5749 5751 5753 5754 5755 5757 5758 5760 5761 5762 5763 5763 5763 5764 5764 5764 5765 5765 5765 5765 5765 5764 5764 5764 5763 5763 5762 5761 5761 5760
5705 5708 5711 5714 5717 5720 5723 5726 5728 5730 5732 5734 5736 5738 5740 5742 5744 5746 5747 5748 5750 5751 5753 5753 5754 5755 5755 5755 5756 5756 5756 5756 5756 5756 5756 5756 5756 5755 5755 5754 5753 5752 5751 5750
5696 5699 5702 5705 5708 5710 5713 5716 5718 5721 5723 5725 5727 5729 5731 5733 5735 5737 5738 5739 5741 5742 5744 5744 5745 5746 5746 5746 5747 5747 5747 5747 5747 5747 5747 5747 5746 5746 5745 5744 5743 5742 5741 5740
5686 5689 5692 5696 5698 5701 5704 5706 5709 5711 5713 5715 5717 5720 5722 5724 5725 5727 5728 5730 5731 5733 5735 5735 5735 5736 5737 5737 5737 5738 5738 5738 5738 5738 5737 5737 5736 5736 5735 5734 5733 5732 5731 5729
5677 5680 5683 5686 5689 5691 5694 5696 5699 5701 5703 5705 5707 5710 5712 5714 5715 5717 5718 5720 5722 5723 5724 5725 5726 5726 5727 5727 5727 5728 5728 5728 5728 5728 5727 5727 5726 5725 5724 5723 5722 5721 5720 5718
5668 5671 5673 5676 5679 5681 5684 5686 5688 5691 5693 5695 5697 5699 5701 5703 5705 5706 5707 5709 5711 5712 5713 5714 5715 5716 5717 5717 5717 5718 5718 5718 5718 5717 5717 5716 5715 5714 5713 5712 5711 5710 5709 5707
5659 5661 5664 5667 5669 5672 5674 5676 5678 5680 5683 5685 5687 5689 5691 5693 5694 5695 5697 5698 5700 5701 5702 5703 5704 5705 5706 5706 5707 5707 5707 5707 5707 5707 5706 5706 5705 5704 5703 5701 5700 5699 5698 5696
5650 5653 5655 5657 5660 5662 5664 5666 5668 5670 5672 5674 5676 5678 5680 5682 5683 5685 5686 5688 5688 5690 5691 5692 5693 5694 5694 5694 5695 5696 5696 5697 5697 5696 5696 5695 5694 5693 5692 5691 5689 5688 5686 5684
5642 5643 5645 5647 5649 5651 5654 5656 5657 5659 5661 5663 5665 5667 5669 5671 5672 5673 5675 5676 5677 5678 5680 5681 5682 5682 5683 5684 5684 5685 5686 5686 5686 5686 5685 5685 5684 5683 5681 5680 5678 5677 5675 5673
5632 5634 5635 5637 5639 5641 5643 5645 5647 5649 5650 5652 5654 5656 5658 5660 5662 5663 5664 5665 5666 5667 5669 5670 5671 5671 5672 5673 5674 5674 5675 5675 5675 5675 5675 5674 5673 5672 5671 5669 5667 5665 5663 5661
5623 5624 5626 5628 5629 5631 5633 5634 5636 5638 5640 5642 5644 5646 5648 5649 5651 5652 5654 5655 5656 5657 5658 5659 5660 5661 5662 5663 5663 5664 5664 5664 5664 5664 5664 5663 5662 5661 5660 5658 5656 5654 5652 5650
5614 5615 5616 5617 5619 5621 5622 5624 5626 5628 5630 5632 5634 5636 5638 5639 5641 5642 5643 5645 5646 5647 5648 5649 5650 5651 5651 5652 5653 5653 5653 5653 5654 5654 5653 5652 5651 5650 5649 5647 5645 5643 5641 5639